Location: Altamira
(10.5079°N, 66.8544°W)
Time: 09:10:10
(UTC+00:00)

H-2A R/B - Pass Details

Date: 08 December 2021
Orbit: 734 x 836 km, 98.2° (Epoch: 24 January)

Event Time Altitude Azimuth Distance (km) Brightness Sun altitude
Rises 22:23:02 0° 157° (SSE) 3,329 5.3 -4.8°
Reaches altitude 10° 22:25:27 10° 152° (SSE) 2,383 4.5 -5.4°
Maximum altitude 22:30:32 50° 77° (ENE) 994 2.2 -6.5°
Drops below altitude 10° 22:35:29 10° 2° (N) 2,318 4.3 -7.7°
Sets 22:37:49 0° 358° (N) 3,229 5.0 -8.2°
